#timestamp,LO_Frequency,Hit,StdDev 
1628042415.0,286046999.7,N
1628042415.9,286046999.7,N
1628042435.8,286047002.3,N
1628042455.6,286047002.3,N
1628042475.4,286047002.4,N
1628042495.3,286047002.3,N
1628042515.1,286047000.0,N
1628042535.9,286047002.4,N
1628042555.7,286047002.8,N
1628042575.5,286047000.4,N
1628042595.4,286047002.8,N
1628042615.2,286047000.2,N
1628042635.0,286047000.4,N
1628042635.9,286047000.4,N
1628042655.8,286047000.1,N
1628042675.6,286046999.9,N
1628042695.5,286046999.9,N
1628042715.3,286046999.7,N
1628042735.1,286047000.1,N
1628042755.9,286047000.1,N
1628042775.7,286046999.8,N
1628042795.5,286047000.2,N
1628042815.4,286047002.8,N
1628042835.2,286047002.3,N
1628042855.1,286047002.4,N
1628042856.0,286047002.4,N
1628042875.8,286046999.7,N
1628042895.6,286047001.9,N
1628042915.5,286047001.7,N
1628042935.3,286047001.8,N
1628042955.2,286047002.7,N
1628042975.9,286047002.3,N
1628042995.7,286046999.9,N
1628043015.6,286047002.3,N
1628043035.4,286046999.7,N
1628043055.2,286047000.2,N
1628043075.1,286047002.2,N
1628043076.0,286047002.2,N
1628043095.8,286047002.5,N
1628043115.7,286047002.1,N
1628043135.5,286047001.5,N
1628043155.3,286047001.7,N
1628043175.2,286047001.7,N
1628043195.0,286047001.3,N
1628043195.9,286047001.3,N
1628043215.7,286047001.5,N
1628043235.6,286047001.4,N
1628043255.4,286047004.4,Y
1628043275.3,286047002.4,P
1628043295.1,286047002.4,P
1628043296.0,286047002.4,P
1628043315.8,286047002.4,Y
1628043335.7,286046998.8,P
1628043355.5,286046996.6,N
1628043375.4,286046996.6,N
1628043395.2,286046999.6,N
1628043415.0,286046999.0,N
1628043415.9,286046999.0,N
1628043435.8,286046999.1,N
1628043455.6,286046999.1,N
1628043475.5,286046999.5,N
1628043495.3,286046998.7,N
1628043515.1,286046999.5,N
1628043535.9,286046999.4,N
1628043555.7,286046998.1,N
1628043575.5,286046998.5,N
1628043595.4,286046998.7,N
1628043615.2,286046999.3,N
1628043635.1,286047001.2,N
1628043636.0,286047001.2,N
1628043655.8,286046996.5,N
1628043675.6,286046996.5,N
1628043695.5,286046999.5,N
1628043715.3,286046999.2,N
1628043735.1,286046996.5,N
1628043755.9,286046999.2,N
1628043775.7,286046998.2,N
1628043795.6,286047001.1,N
1628043815.4,286046998.1,N
1628043835.2,286046999.3,N
1628043855.1,286046998.9,N
1628043856.0,286046998.9,N
1628043875.8,286046998.4,N
1628043895.6,286046998.4,N
1628043915.5,286047001.1,N
1628043935.3,286046998.3,N
1628043955.2,286046998.9,N
1628043975.9,286046998.7,N
1628043995.7,286046998.4,N
1628044015.6,286046998.2,N
1628044035.4,286047000.3,N
1628044055.2,286047000.3,N
1628044075.1,286047000.9,N
1628044076.0,286047000.9,N
1628044095.8,286047000.6,N
1628044115.7,286047000.3,N
1628044135.5,286047000.6,N
1628044155.3,286046999.7,N
1628044175.2,286047000.2,N
1628044195.0,286047000.7,N
1628044195.9,286047000.7,N
1628044215.7,286047000.3,N
1628044235.6,286047000.3,N
1628044255.4,286047000.2,N
1628044275.3,286047000.0,N
1628044295.1,286047000.5,N
1628044296.0,286047000.5,N
1628044315.8,286047000.3,N
1628044335.7,286046998.3,N
1628044355.5,286047000.6,N
1628044375.3,286047001.2,N
1628044395.2,286046998.2,N
1628044415.0,286047000.7,N
1628044415.9,286047000.7,N
1628044435.8,286047001.2,N
1628044455.6,286046998.1,N
1628044475.4,286047000.0,N
1628044495.3,286047000.5,N
1628044515.1,286047000.4,N
1628044535.9,286047002.6,Y
1628044555.7,286047000.1,P
1628044575.5,286047000.0,N
1628044595.4,286046999.7,P
1628044615.2,286047000.9,Y
1628044635.0,286047001.2,P
1628044635.9,286047001.2,N
1628044655.8,286047000.3,N
1628044675.6,286047000.2,N
1628044695.5,286047002.2,Y
1628044715.3,286046999.9,P
1628044735.2,286047000.4,N
1628044755.9,286046999.7,N
1628044775.7,286046999.7,N
1628044795.6,286047000.5,N
1628044815.4,286047000.6,N
1628044835.2,286046999.8,N
1628044855.1,286047000.1,N
1628044856.0,286047000.1,N
1628044875.8,286047000.0,N
1628044895.7,286047001.2,Y
1628044915.5,286046998.1,P
1628044935.3,286046998.2,N
1628044955.2,286046998.6,N
1628044975.0,286046998.8,N
1628044975.9,286046998.8,N
1628044995.8,286046999.5,N
1628045015.6,286046999.5,N
1628045035.4,286046996.6,Y
1628045055.3,286046998.9,P
1628045075.1,286047001.2,P
1628045095.9,286046999.3,N
1628045115.7,286046999.2,N
1628045135.5,286046999.3,N
1628045155.4,286046999.2,N
1628045175.2,286046996.8,Y
1628045195.0,286046999.4,P
1628045195.9,286046999.4,P
1628045215.8,286046999.3,P
1628045235.6,286046996.8,Y
1628045255.5,286046999.6,P
1628045275.3,286046999.4,P
1628045295.1,286046996.5,P
1628045315.9,286046996.6,N
1628045335.7,286046997.1,N
1628045355.6,286046997.1,N
1628045375.4,286046997.3,N
1628045395.2,286046996.8,N
1628045415.1,286046996.8,N
1628045416.0,286046996.8,N
1628045435.8,286046997.0,N
1628045455.7,286046996.7,N
1628045475.5,286046997.1,N
1628045495.3,286046996.6,Y
1628045515.2,286046999.9,P
1628045535.0,286047000.0,N
1628045535.9,286047000.0,N
1628045555.8,286047002.3,N
1628045575.6,286046999.8,N
1628045595.4,286047002.3,N
1628045615.3,286047002.4,N
1628045635.1,286047002.1,N
1628045655.8,286047001.6,N
1628045675.7,286047002.2,N
1628045695.5,286047002.6,N
1628045715.4,286047002.4,N
1628045735.2,286047002.8,N
1628045755.0,286047000.4,N
1628045755.9,286047000.4,N
1628045775.8,286046999.9,N
1628045795.6,286047000.3,N
1628045815.4,286046999.9,N
1628045835.3,286047002.2,N
1628045885.1,286047002.1,E
1628045895.0,286047000.5,N
1628045896.0,286047000.5,P
1628045915.8,286047001.0,P
1628045935.6,286046998.1,Y
1628045955.5,286046998.4,P
1628045975.3,286046998.5,N
1628045995.1,286046998.3,N
